Regional Weather Roundup
Issued by NWS

Home | Current Version | Previous Version | Graphics & Text | Print | Product List | Glossary On
Versions: 1 2 3 4 5 6 7 8 9 10 11 12 13 14 15 16 17 18 19 20 21 22 23 24 25 26 27
000
ASUS43 KDMX 231207
RWRIA

WEATHER ROUNDUP FOR IOWA
NATIONAL WEATHER SERVICE DES MOINES IA
700 AM CDT THU OCT 23 2014

NOTE: "FAIR" INDICATES FEW OR NO CLOUDS BELOW 12,000 FEET WITH NO
SIGNIFICANT WEATHER AND/OR OBSTRUCTIONS TO VISIBILITY.

* - THESE STATIONS ARE NOT NWS STATIONS...THUS NOT UNDER NWS
QUALITY CONTROL.  THEY ALSO DO NOT REPORT WEATHER SUCH
AS PRECIPITATION OR FOG.

IAZ001>003-012>014-020>022-031>034-043>046-231300-
   NORTHWEST IOWA

CITY           SKY/WX    TMP DP  RH WIND       PRES   REMARKS
CARROLL *      CLOUDY    57  57 100 SW6       30.01S FOG
CHEROKEE *     FOG       52  52 100 CALM      30.02S VSB 1/4
DENISON *      CLOUDY    59  59 100 W5        30.01R FOG
LE MARS *      FOG       50  50 100 SW3       30.03S VSB<1/4
ORANGE CITY *  FOG       52  48  87 CALM      30.03R VSB 0
SHELDON *      FOG       46  46 100 SW3       30.01S VSB 0
SIOUX CITY     FOG       50  50 100 CALM      30.04R VSB 1/4
6HR MIN TEMP:  50; 6HR MAX TEMP:  60; 6HR PCP: TRACE;

SPENCER        FOG       51  50  96 NW6       30.02R VSB 1/4
6HR MIN TEMP:  51; 6HR MAX TEMP:  58; 6HR PCP:  0.03;

STORM LAKE *   CLOUDY    55  54  94 NW5       30.03R
$$

IAZ055>058-069>071-079>083-090>094-231300-
   SOUTHWEST IOWA

CITY           SKY/WX    TMP DP  RH WIND       PRES   REMARKS
ATLANTIC *     CLOUDY    59  59 100 S8        30.02S FOG
AUDUBON *      CLOUDY    57  54  88 S9        30.03S HAZE
CLARINDA *     CLOUDY    59  59 100 S6        30.06S FOG
COUNCIL BLFS * CLOUDY    61  61 100 SW7       30.02S FOG
CRESTON *      CLOUDY    54  54 100 SW8       30.05S
HARLAN  *      CLOUDY    59  59 100 SW6       30.05F FOG
LAMONI         LGT RAIN  51  48  89 S9        30.05F
6HR MIN TEMP:  51; 6HR MAX TEMP:  56; 6HR PCP:  0.16;

RED OAK *      CLOUDY    59  59 100 S7        30.04S
SHENANDOAH *     N/A     61  61 100 SW8       30.05S
$$

IAZ047>049-059>061-072>074-084-231300-
   CENTRAL IOWA

CITY           SKY/WX    TMP DP  RH WIND       PRES   REMARKS
AMES           LGT RAIN  51  49  92 S3        30.04R
6HR MIN TEMP:  50; 6HR MAX TEMP:  53; 6HR PCP:  0.38;

ANKENY *       CLOUDY   N/A N/A N/A CALM      30.04R
CHARITON *     CLOUDY    52  46  82 S9        30.04F
DES MOINES     CLOUDY    54  50  86 S5        30.04S
6HR MIN TEMP:  53; 6HR MAX TEMP:  57; 6HR PCP:  0.19;

GRINNELL*      CLOUDY    49  44  82 SE7       30.07R
KNOXVILLE *    CLOUDY    52  46  82 S12       30.03F
MARSHALLTOWN   LGT RAIN  49  46  90 CALM      30.05R
6HR MIN TEMP:  48; 6HR MAX TEMP:  54; 6HR PCP:  0.05;

PELLA *        CLOUDY    51  46  82 SE6       30.06F
PERRY *        CLOUDY    54  54 100 SE3       30.03S
$$

IAZ004>006-015-016-023>025-035-036-231300-
   NORTH CENTRAL IOWA

CITY           SKY/WX    TMP DP  RH WIND       PRES   REMARKS
ALGONA *       CLOUDY    54  54 100 S8        30.01S FOG
CLARION *      CLOUDY    52  52 100 S6        30.01F FOG
ESTHERVILLE    FOG       51  51 100 NW6       30.00S VSB 1/4
6HR MIN TEMP:  51; 6HR MAX TEMP:  55; 6HR PCP:  0.01;

FORT DODGE *   CLOUDY    54  50  87 SW3       30.02S
MASON CITY     LGT RAIN  48  48 100 SE7       30.03F
6HR MIN TEMP:  48; 6HR MAX TEMP:  52; 6HR PCP:  0.37;

FOREST CITY *  CLOUDY    50  50 100 SE6       30.01F FOG
IOWA FALLS *   LGT RAIN  48  46  93 SE8       30.04F
$$

IAZ007>011-017>019-026>030-037>042-050>054-066-231300-
   NORTHEAST IOWA

CITY           SKY/WX    TMP DP  RH WIND       PRES   REMARKS
CEDAR RAPIDS   CLOUDY    48  41  76 SE8       30.08F
6HR MIN TEMP:  47; 6HR MAX TEMP:  50;

CHARLES CITY * LGT RAIN  48  46  93 VRB3      30.05S
CLINTON *      CLEAR     37  34  87 SE6       30.19F WCI  33
DECORAH *      CLOUDY    46  45  93 S9G15     30.05F FOG
DUBUQUE        CLOUDY    44  37  76 S12       30.12F
6HR MIN TEMP:  43; 6HR MAX TEMP:  44;

MONTICELLO *   MOCLDY    45  39  81 SE7       30.10F
OELWEIN *      CLOUDY    48  45  87 SE12      30.06F
WATERLOO       CLOUDY    48  44  86 S8        30.04F
6HR MIN TEMP:  48; 6HR MAX TEMP:  52; 6HR PCP:  0.17;

$$

IAZ064-065-067-068-078-231300-
   EAST CENTRAL IOWA

CITY           SKY/WX    TMP DP  RH WIND       PRES   REMARKS
DAVENPORT      PTCLDY    42  36  79 SE10      30.15F
6HR MIN TEMP:  40; 6HR MAX TEMP:  45;

IOWA CITY      CLOUDY    46  41  82 SE7       30.11F
6HR MIN TEMP:  43; 6HR MAX TEMP:  46;

MT. PLEASANT * CLOUDY    47  41  78 S8        30.12F
MUSCATINE *    CLOUDY    46  39  76 SE7       30.13F
QUAD CITIES    PTCLDY    40  36  86 E7        30.16S
6HR MIN TEMP:  37; 6HR MAX TEMP:  45;

$$

IAZ062-063-075>077-085>089-095>099-231300-
   SOUTHEAST IOWA

CITY           SKY/WX    TMP DP  RH WIND       PRES   REMARKS
BURLINGTON     CLOUDY    48  41  76 S12       30.13F
6HR MIN TEMP:  43; 6HR MAX TEMP:  49;

FAIRFIELD *    MOCLDY    48  41  76 S12       30.08F
FORT MADISON * PTCLDY    48  43  81 S9G17     30.14F
KEOKUK *       CLEAR     50  43  76 S9G16     30.12F
OSKALOOSA *      N/A     49  43  79 S3        30.08S
CENTERVILLE *  MOCLDY    50  46  87 S8        30.08F
OTTUMWA        CLOUDY    50  43  77 S8G18     30.07S
6HR MIN TEMP:  50; 6HR MAX TEMP:  51;

WASHINGTON *   CLEAR     48  43  81 S12       30.09F
$$

ABBREVIATIONS USED IN REMARKS
   TC - TEMPERATURES IN CELSIUS
  WCI - WIND CHILL INDEX
   HX - HEAT INDEX
  VSB - VISIBILITY
$$




USA.gov is the U.S. government's official web portal to all federal, state and local government web resources and services.